Simultaneous Nadir Overpasses (SNOs) Predictions

Prediction of SNOs between GOES-15 and FY3D Satellite Orbit:

Table of predicted SNOs for the next 14.0 days since TLE Epoch: 12/17/2022
Index Date Time (GOES-15) GOES-15 Lat,Lon FY3D Lat,Lon Distance(km) Time Diff (sec)
1 12/17/2022 22:32:20 0.01,-127.32 -0.41,-129.09 202.94 80
2 12/18/2022 22:16:40 0.00,-127.27 0.57,-124.65 298.44 80
3 12/20/2022 10:36:27 -0.01,-127.27 0.63,-130.06 318.64 80
4 12/21/2022 10:20:47 -0.01,-127.22 -0.36,-125.62 182.15 80
5 12/22/2022 22:40:43 0.01,-127.08 -0.87,-131.06 453.59 80
6 12/23/2022 22:25:03 0.01,-127.02 0.12,-126.62 46.71 80
7 12/26/2022 10:26:29 -0.01,-126.95 0.14,-127.57 71.76 80
8 12/27/2022 10:10:49 -0.00,-126.89 -0.86,-123.14 428.24 80
9 12/28/2022 22:30:44 0.01,-126.74 -0.42,-128.56 208.09 80
10 12/29/2022 22:15:04 0.01,-126.69 0.57,-124.13 291.99 80
